This is the latest recevied weather packets stored in our database for station/object AB0TJ. If no packets are shown the sender has not sent any weather packets the latest 1 day(s).
| Time | Temp. | Humidity | Pressure | Rain* | Wind** | Luminosity | Snow |
|---|---|---|---|---|---|---|---|
| 1836274507 | 16.11° C | 53% | 1020 hPa | 0 mm | 0 m/s | 0 W/m² | - |
| 1836274257 | 16.11° C | 53% | 1019.9 hPa | 0 mm | 0 m/s | 0 W/m² | - |
| 1836273972 | 16.11° C | 52% | 1020 hPa | 0 mm | 0.45 m/s, 104° | 0 W/m² | - |
| 1778046344 | 13.33° C | 46% | 1009.2 hPa | 0 mm | 1.34 m/s, 49° | 0 W/m² | - |
| 1778045764 | 13.33° C | 45% | 1009 hPa | 0 mm | 0.89 m/s, 63° | 0 W/m² | - |
| 1778045219 | 13.33° C | 46% | 1008.9 hPa | 0 mm | 0.45 m/s, 41° | 0 W/m² | - |
| 1778044659 | 13.33° C | 46% | 1008.9 hPa | 0 mm | 1.34 m/s, 327° | 0 W/m² | - |
| 1778044119 | 13.89° C | 46% | 1008.9 hPa | 0 mm | 0.89 m/s, 50° | 0 W/m² | - |
| 1778043584 | 13.89° C | 45% | 1008.9 hPa | 0 mm | 0.45 m/s, 21° | 0 W/m² | - |
| 1778042984 | 13.89° C | 45% | 1008.6 hPa | 0 mm | 1.34 m/s, 303° | 0 W/m² | - |
| 1778042484 | 13.89° C | 45% | 1008.7 hPa | 0 mm | 0.89 m/s, 333° | 0 W/m² | - |
| 1778041959 | 13.89° C | 45% | 1008.9 hPa | 0 mm | 0.45 m/s, 2° | 0 W/m² | - |
| 1778041369 | 13.89° C | 44% | 1008.8 hPa | 0 mm | 0.89 m/s, 323° | 0 W/m² | - |
| 1778040777 | 13.89° C | 44% | 1008.7 hPa | 0 mm | 1.79 m/s, 337° | 0 W/m² | - |
| 1778040294 | 13.89° C | 44% | 1008.9 hPa | 0 mm | 2.24 m/s, 328° | 0 W/m² | - |
| 1778039789 | 13.89° C | 44% | 1008.5 hPa | 0 mm | 1.34 m/s, 295° | 0 W/m² | - |
| 1778039224 | 13.89° C | 44% | 1008.4 hPa | 0 mm | 0.89 m/s, 348° | 0 W/m² | - |
| 1778038689 | 14.44° C | 44% | 1008.2 hPa | 0 mm | 0.89 m/s, 303° | 0 W/m² | - |
| 1778038164 | 14.44° C | 43% | 1008.1 hPa | 0 mm | 0.89 m/s, 337° | 0 W/m² | - |
| 1778037619 | 14.44° C | 43% | 1008 hPa | 0 mm | 1.34 m/s, 321° | 0 W/m² | - |
| 1778037032 | 14.44° C | 43% | 1007.8 hPa | 0 mm | 0.89 m/s, 326° | 0 W/m² | - |
| 1778036469 | 14.44° C | 43% | 1007.7 hPa | 0 mm | 1.34 m/s, 309° | 0 W/m² | - |
| 1778035912 | 14.44° C | 42% | 1007.6 hPa | 0 mm | 2.24 m/s, 301° | 0 W/m² | - |
| 1778035429 | 14.44° C | 42% | 1007.7 hPa | 0 mm | 2.68 m/s, 303° | 0 W/m² | - |
| 1778034859 | 14.44° C | 42% | 1007.3 hPa | 0 mm | 2.24 m/s, 294° | 0 W/m² | - |
* Rain latest hour (hover to see other rain measurements)
** Current wind speed in m/s (hover to see current wind gust speed)